owner,sensor,date,latitude,longitude,sea_surface_height_above_sea_level,qcFlag 
COMPS,ioos:station:USF.COMPS:ANC:1,2009-02-01T01:00:00Z,28.1930,-82.7890,-0.636,1111122 
COMPS,ioos:station:USF.COMPS:ANC:1,2009-02-01T01:06:00Z,28.1930,-82.7890,-0.647,1111122 
COMPS,ioos:station:USF.COMPS:ANC:1,2009-02-01T01:12:00Z,28.1930,-82.7890,-0.658,1111122 
COMPS,ioos:station:USF.COMPS:ANC:1,2009-02-01T01:18:00Z,28.1930,-82.7890,-0.669,1111122 
COMPS,ioos:station:USF.COMPS:ANC:1,2009-02-01T01:24:00Z,28.1930,-82.7890,-0.68,1111122 
COMPS,ioos:station:USF.COMPS:ANC:1,2009-02-01T01:30:00Z,28.1930,-82.7890,-0.688,1111122 
COMPS,ioos:station:USF.COMPS:ANC:1,2009-02-01T01:36:00Z,28.1930,-82.7890,-0.698,1111122 
COMPS,ioos:station:USF.COMPS:ANC:1,2009-02-01T01:42:00Z,28.1930,-82.7890,-0.694,1111122 
COMPS,ioos:station:USF.COMPS:ANC:1,2009-02-01T01:48:00Z,28.1930,-82.7890,-0.69,1111122 
COMPS,ioos:station:USF.COMPS:ANC:1,2009-02-01T01:54:00Z,28.1930,-82.7890,-0.69,1111122 
COMPS,ioos:station:USF.COMPS:ANC:1,2009-02-01T02:00:00Z,28.1930,-82.7890,-0.69,1111122 
COMPS,ioos:station:USF.COMPS:ANC:1,2009-02-01T02:06:00Z,28.1930,-82.7890,-0.69,1111122 
COMPS,ioos:station:USF.COMPS:ANC:1,2009-02-01T02:12:00Z,28.1930,-82.7890,-0.691,1111122 
COMPS,ioos:station:USF.COMPS:ANC:1,2009-02-01T02:18:00Z,28.1930,-82.7890,-0.691,1111122 
COMPS,ioos:station:USF.COMPS:ANC:1,2009-02-01T02:24:00Z,28.1930,-82.7890,-0.691,1111122 
COMPS,ioos:station:USF.COMPS:ANC:1,2009-02-01T02:30:00Z,28.1930,-82.7890,-0.691,1111122 
COMPS,ioos:station:USF.COMPS:ANC:1,2009-02-01T02:36:00Z,28.1930,-82.7890,-0.691,1111122 
COMPS,ioos:station:USF.COMPS:ANC:1,2009-02-01T02:42:00Z,28.1930,-82.7890,-0.691,1111122 
COMPS,ioos:station:USF.COMPS:ANC:1,2009-02-01T02:48:00Z,28.1930,-82.7890,-0.691,1111122 
COMPS,ioos:station:USF.COMPS:ANC:1,2009-02-01T02:54:00Z,28.1930,-82.7890,-0.691,1111122 
COMPS,ioos:station:USF.COMPS:ANC:1,2009-02-01T03:00:00Z,28.1930,-82.7890,-0.691,1111122 
COMPS,ioos:station:USF.COMPS:ANC:1,2009-02-01T03:06:00Z,28.1930,-82.7890,-0.691,1111122 
COMPS,ioos:station:USF.COMPS:ANC:1,2009-02-01T03:12:00Z,28.1930,-82.7890,-0.691,1111122 
COMPS,ioos:station:USF.COMPS:ANC:1,2009-02-01T03:18:00Z,28.1930,-82.7890,-0.691,1111122 
COMPS,ioos:station:USF.COMPS:ANC:1,2009-02-01T03:24:00Z,28.1930,-82.7890,-0.698,1111122 
COMPS,ioos:station:USF.COMPS:ANC:1,2009-02-01T03:30:00Z,28.1930,-82.7890,-0.686,1111122 
COMPS,ioos:station:USF.COMPS:ANC:1,2009-02-01T03:36:00Z,28.1930,-82.7890,-0.672,1111122 
COMPS,ioos:station:USF.COMPS:ANC:1,2009-02-01T03:42:00Z,28.1930,-82.7890,-0.661,1111122 
COMPS,ioos:station:USF.COMPS:ANC:1,2009-02-01T03:48:00Z,28.1930,-82.7890,-0.648,1111122 
COMPS,ioos:station:USF.COMPS:ANC:1,2009-02-01T03:54:00Z,28.1930,-82.7890,-0.634,1111122 
COMPS,ioos:station:USF.COMPS:ANC:1,2009-02-01T04:00:00Z,28.1930,-82.7890,-0.619,1111122 
COMPS,ioos:station:USF.COMPS:ANC:1,2009-02-01T04:06:00Z,28.1930,-82.7890,-0.604,1111122 
COMPS,ioos:station:USF.COMPS:ANC:1,2009-02-01T04:12:00Z,28.1930,-82.7890,-0.59,1111122 
COMPS,ioos:station:USF.COMPS:ANC:1,2009-02-01T04:18:00Z,28.1930,-82.7890,-0.575,1111122 
COMPS,ioos:station:USF.COMPS:ANC:1,2009-02-01T04:24:00Z,28.1930,-82.7890,-0.556,1111122 
COMPS,ioos:station:USF.COMPS:ANC:1,2009-02-01T04:30:00Z,28.1930,-82.7890,-0.537,1111122 
COMPS,ioos:station:USF.COMPS:ANC:1,2009-02-01T04:36:00Z,28.1930,-82.7890,-0.522,1111122 
COMPS,ioos:station:USF.COMPS:ANC:1,2009-02-01T04:42:00Z,28.1930,-82.7890,-0.509,1111122 
COMPS,ioos:station:USF.COMPS:ANC:1,2009-02-01T04:48:00Z,28.1930,-82.7890,-0.492,1111122 
COMPS,ioos:station:USF.COMPS:ANC:1,2009-02-01T04:54:00Z,28.1930,-82.7890,-0.474,1111122 
COMPS,ioos:station:USF.COMPS:ANC:1,2009-02-01T05:00:00Z,28.1930,-82.7890,-0.454,1111122 
COMPS,ioos:station:USF.COMPS:ANC:1,2009-02-01T05:06:00Z,28.1930,-82.7890,-0.437,1111122 
COMPS,ioos:station:USF.COMPS:ANC:1,2009-02-01T05:12:00Z,28.1930,-82.7890,-0.422,1111122 
COMPS,ioos:station:USF.COMPS:ANC:1,2009-02-01T05:18:00Z,28.1930,-82.7890,-0.407,1111122 
COMPS,ioos:station:USF.COMPS:ANC:1,2009-02-01T05:24:00Z,28.1930,-82.7890,-0.392,1111122 
COMPS,ioos:station:USF.COMPS:ANC:1,2009-02-01T05:30:00Z,28.1930,-82.7890,-0.377,1111122 
COMPS,ioos:station:USF.COMPS:ANC:1,2009-02-01T05:36:00Z,28.1930,-82.7890,-0.361,1111122 
COMPS,ioos:station:USF.COMPS:ANC:1,2009-02-01T05:42:00Z,28.1930,-82.7890,-0.348,1111122 
COMPS,ioos:station:USF.COMPS:ANC:1,2009-02-01T05:48:00Z,28.1930,-82.7890,-0.336,1111122 
COMPS,ioos:station:USF.COMPS:ANC:1,2009-02-01T05:54:00Z,28.1930,-82.7890,-0.322,1111122 
COMPS,ioos:station:USF.COMPS:ANC:1,2009-02-01T06:00:00Z,28.1930,-82.7890,-0.306,1111122 
COMPS,ioos:station:USF.COMPS:ANC:1,2009-02-01T06:06:00Z,28.1930,-82.7890,-0.293,1111122 
COMPS,ioos:station:USF.COMPS:ANC:1,2009-02-01T06:12:00Z,28.1930,-82.7890,-0.282,1111122 
COMPS,ioos:station:USF.COMPS:ANC:1,2009-02-01T06:18:00Z,28.1930,-82.7890,-0.268,1111122 
COMPS,ioos:station:USF.COMPS:ANC:1,2009-02-01T06:24:00Z,28.1930,-82.7890,-0.259,1111122 
COMPS,ioos:station:USF.COMPS:ANC:1,2009-02-01T06:30:00Z,28.1930,-82.7890,-0.249,1111122 
COMPS,ioos:station:USF.COMPS:ANC:1,2009-02-01T06:36:00Z,28.1930,-82.7890,-0.239,1111122 
COMPS,ioos:station:USF.COMPS:ANC:1,2009-02-01T06:42:00Z,28.1930,-82.7890,-0.235,1111122 
COMPS,ioos:station:USF.COMPS:ANC:1,2009-02-01T06:48:00Z,28.1930,-82.7890,-0.237,1111122 
COMPS,ioos:station:USF.COMPS:ANC:1,2009-02-01T06:54:00Z,28.1930,-82.7890,-0.235,1111122 
COMPS,ioos:station:USF.COMPS:ANC:1,2009-02-01T07:00:00Z,28.1930,-82.7890,-0.231,1111122 
COMPS,ioos:station:USF.COMPS:ANC:1,2009-02-01T07:06:00Z,28.1930,-82.7890,-0.229,1111122 
COMPS,ioos:station:USF.COMPS:ANC:1,2009-02-01T07:12:00Z,28.1930,-82.7890,-0.219,1111122 
COMPS,ioos:station:USF.COMPS:ANC:1,2009-02-01T07:18:00Z,28.1930,-82.7890,-0.21,1111122 
COMPS,ioos:station:USF.COMPS:ANC:1,2009-02-01T07:24:00Z,28.1930,-82.7890,-0.209,1111122 
COMPS,ioos:station:USF.COMPS:ANC:1,2009-02-01T07:30:00Z,28.1930,-82.7890,-0.209,1111122 
COMPS,ioos:station:USF.COMPS:ANC:1,2009-02-01T07:36:00Z,28.1930,-82.7890,-0.207,1111122 
COMPS,ioos:station:USF.COMPS:ANC:1,2009-02-01T07:42:00Z,28.1930,-82.7890,-0.2,1111122 
COMPS,ioos:station:USF.COMPS:ANC:1,2009-02-01T07:48:00Z,28.1930,-82.7890,-0.192,1111122 
COMPS,ioos:station:USF.COMPS:ANC:1,2009-02-01T07:54:00Z,28.1930,-82.7890,-0.18,1111122 
COMPS,ioos:station:USF.COMPS:ANC:1,2009-02-01T08:00:00Z,28.1930,-82.7890,-0.171,1111122 
COMPS,ioos:station:USF.COMPS:ANC:1,2009-02-01T08:06:00Z,28.1930,-82.7890,-0.173,1111122 
COMPS,ioos:station:USF.COMPS:ANC:1,2009-02-01T08:12:00Z,28.1930,-82.7890,-0.176,1111122 
COMPS,ioos:station:USF.COMPS:ANC:1,2009-02-01T08:18:00Z,28.1930,-82.7890,-0.174,1111122 
COMPS,ioos:station:USF.COMPS:ANC:1,2009-02-01T08:24:00Z,28.1930,-82.7890,-0.172,1111122 
COMPS,ioos:station:USF.COMPS:ANC:1,2009-02-01T08:30:00Z,28.1930,-82.7890,-0.172,1111122 
COMPS,ioos:station:USF.COMPS:ANC:1,2009-02-01T08:36:00Z,28.1930,-82.7890,-0.174,1111122 
COMPS,ioos:station:USF.COMPS:ANC:1,2009-02-01T08:42:00Z,28.1930,-82.7890,-0.177,1111122 
COMPS,ioos:station:USF.COMPS:ANC:1,2009-02-01T08:48:00Z,28.1930,-82.7890,-0.181,1111122 
COMPS,ioos:station:USF.COMPS:ANC:1,2009-02-01T08:54:00Z,28.1930,-82.7890,-0.187,1111122 
COMPS,ioos:station:USF.COMPS:ANC:1,2009-02-01T09:00:00Z,28.1930,-82.7890,-0.188,1111122 
COMPS,ioos:station:USF.COMPS:ANC:1,2009-02-01T09:06:00Z,28.1930,-82.7890,-0.188,1111122 
COMPS,ioos:station:USF.COMPS:ANC:1,2009-02-01T09:12:00Z,28.1930,-82.7890,-0.191,1111122 
COMPS,ioos:station:USF.COMPS:ANC:1,2009-02-01T09:18:00Z,28.1930,-82.7890,-0.198,1111122 
COMPS,ioos:station:USF.COMPS:ANC:1,2009-02-01T09:24:00Z,28.1930,-82.7890,-0.204,1111122 
COMPS,ioos:station:USF.COMPS:ANC:1,2009-02-01T09:30:00Z,28.1930,-82.7890,-0.208,1111122 
COMPS,ioos:station:USF.COMPS:ANC:1,2009-02-01T09:36:00Z,28.1930,-82.7890,-0.217,1111122 
COMPS,ioos:station:USF.COMPS:ANC:1,2009-02-01T09:42:00Z,28.1930,-82.7890,-0.224,1111122 
COMPS,ioos:station:USF.COMPS:ANC:1,2009-02-01T09:48:00Z,28.1930,-82.7890,-0.233,1111122 
COMPS,ioos:station:USF.COMPS:ANC:1,2009-02-01T09:54:00Z,28.1930,-82.7890,-0.249,1111122 
COMPS,ioos:station:USF.COMPS:ANC:1,2009-02-01T10:00:00Z,28.1930,-82.7890,-0.256,1111122 
COMPS,ioos:station:USF.COMPS:ANC:1,2009-02-01T10:06:00Z,28.1930,-82.7890,-0.26,1111122 
COMPS,ioos:station:USF.COMPS:ANC:1,2009-02-01T10:12:00Z,28.1930,-82.7890,-0.262,1111122 
COMPS,ioos:station:USF.COMPS:ANC:1,2009-02-01T10:18:00Z,28.1930,-82.7890,-0.267,1111122 
COMPS,ioos:station:USF.COMPS:ANC:1,2009-02-01T10:24:00Z,28.1930,-82.7890,-0.271,1111122 
COMPS,ioos:station:USF.COMPS:ANC:1,2009-02-01T10:30:00Z,28.1930,-82.7890,-0.274,1111122 
COMPS,ioos:station:USF.COMPS:ANC:1,2009-02-01T10:36:00Z,28.1930,-82.7890,-0.282,1111122 
COMPS,ioos:station:USF.COMPS:ANC:1,2009-02-01T10:42:00Z,28.1930,-82.7890,-0.287,1111122 
COMPS,ioos:station:USF.COMPS:ANC:1,2009-02-01T10:48:00Z,28.1930,-82.7890,-0.284,1111122 
COMPS,ioos:station:USF.COMPS:ANC:1,2009-02-01T10:54:00Z,28.1930,-82.7890,-0.284,1111122 
COMPS,ioos:station:USF.COMPS:ANC:1,2009-02-01T11:00:00Z,28.1930,-82.7890,-0.289,1111122 
COMPS,ioos:station:USF.COMPS:ANC:1,2009-02-01T11:06:00Z,28.1930,-82.7890,-0.293,1111122 
COMPS,ioos:station:USF.COMPS:ANC:1,2009-02-01T11:12:00Z,28.1930,-82.7890,-0.292,1111122 
COMPS,ioos:station:USF.COMPS:ANC:1,2009-02-01T11:18:00Z,28.1930,-82.7890,-0.292,1111122 
COMPS,ioos:station:USF.COMPS:ANC:1,2009-02-01T11:24:00Z,28.1930,-82.7890,-0.306,1111122 
COMPS,ioos:station:USF.COMPS:ANC:1,2009-02-01T11:30:00Z,28.1930,-82.7890,-0.322,1111122 
COMPS,ioos:station:USF.COMPS:ANC:1,2009-02-01T11:36:00Z,28.1930,-82.7890,-0.322,1111122 
COMPS,ioos:station:USF.COMPS:ANC:1,2009-02-01T11:42:00Z,28.1930,-82.7890,-0.325,1111122 
COMPS,ioos:station:USF.COMPS:ANC:1,2009-02-01T11:48:00Z,28.1930,-82.7890,-0.342,1111122 
COMPS,ioos:station:USF.COMPS:ANC:1,2009-02-01T11:54:00Z,28.1930,-82.7890,-0.357,1111122 
COMPS,ioos:station:USF.COMPS:ANC:1,2009-02-01T12:00:00Z,28.1930,-82.7890,-0.364,1111122 
COMPS,ioos:station:USF.COMPS:ANC:1,2009-02-01T12:06:00Z,28.1930,-82.7890,-0.373,1111122 
COMPS,ioos:station:USF.COMPS:ANC:1,2009-02-01T12:12:00Z,28.1930,-82.7890,-0.383,1111122 
COMPS,ioos:station:USF.COMPS:ANC:1,2009-02-01T12:18:00Z,28.1930,-82.7890,-0.388,1111122 
COMPS,ioos:station:USF.COMPS:ANC:1,2009-02-01T12:24:00Z,28.1930,-82.7890,-0.4,1111122 
COMPS,ioos:station:USF.COMPS:ANC:1,2009-02-01T12:30:00Z,28.1930,-82.7890,-0.415,1111122 
COMPS,ioos:station:USF.COMPS:ANC:1,2009-02-01T12:36:00Z,28.1930,-82.7890,-0.425,1111122 
COMPS,ioos:station:USF.COMPS:ANC:1,2009-02-01T12:42:00Z,28.1930,-82.7890,-0.433,1111122 
COMPS,ioos:station:USF.COMPS:ANC:1,2009-02-01T12:48:00Z,28.1930,-82.7890,-0.435,1111122 
COMPS,ioos:station:USF.COMPS:ANC:1,2009-02-01T12:54:00Z,28.1930,-82.7890,-0.435,1111122 
COMPS,ioos:station:USF.COMPS:ANC:1,2009-02-01T13:00:00Z,28.1930,-82.7890,-0.441,1111122 
COMPS,ioos:station:USF.COMPS:ANC:1,2009-02-01T13:06:00Z,28.1930,-82.7890,-0.45,1111122 
COMPS,ioos:station:USF.COMPS:ANC:1,2009-02-01T13:12:00Z,28.1930,-82.7890,-0.455,1111122 
COMPS,ioos:station:USF.COMPS:ANC:1,2009-02-01T13:18:00Z,28.1930,-82.7890,-0.463,1111122 
COMPS,ioos:station:USF.COMPS:ANC:1,2009-02-01T13:24:00Z,28.1930,-82.7890,-0.477,1111122 
COMPS,ioos:station:USF.COMPS:ANC:1,2009-02-01T13:30:00Z,28.1930,-82.7890,-0.486,1111122 
COMPS,ioos:station:USF.COMPS:ANC:1,2009-02-01T13:36:00Z,28.1930,-82.7890,-0.489,1111122 
COMPS,ioos:station:USF.COMPS:ANC:1,2009-02-01T13:42:00Z,28.1930,-82.7890,-0.501,1111122 
COMPS,ioos:station:USF.COMPS:ANC:1,2009-02-01T13:48:00Z,28.1930,-82.7890,-0.511,1111122 
COMPS,ioos:station:USF.COMPS:ANC:1,2009-02-01T13:54:00Z,28.1930,-82.7890,-0.517,1111122 
COMPS,ioos:station:USF.COMPS:ANC:1,2009-02-01T14:00:00Z,28.1930,-82.7890,-0.521,1111122 
COMPS,ioos:station:USF.COMPS:ANC:1,2009-02-01T14:06:00Z,28.1930,-82.7890,-0.526,1111122 
COMPS,ioos:station:USF.COMPS:ANC:1,2009-02-01T14:12:00Z,28.1930,-82.7890,-0.526,1111122 
COMPS,ioos:station:USF.COMPS:ANC:1,2009-02-01T14:18:00Z,28.1930,-82.7890,-0.52,1111122 
COMPS,ioos:station:USF.COMPS:ANC:1,2009-02-01T14:24:00Z,28.1930,-82.7890,-0.51,1111122 
COMPS,ioos:station:USF.COMPS:ANC:1,2009-02-01T14:30:00Z,28.1930,-82.7890,-0.504,1111122 
COMPS,ioos:station:USF.COMPS:ANC:1,2009-02-01T14:36:00Z,28.1930,-82.7890,-0.497,1111122 
COMPS,ioos:station:USF.COMPS:ANC:1,2009-02-01T14:42:00Z,28.1930,-82.7890,-0.485,1111122 
COMPS,ioos:station:USF.COMPS:ANC:1,2009-02-01T14:48:00Z,28.1930,-82.7890,-0.476,1111122 
COMPS,ioos:station:USF.COMPS:ANC:1,2009-02-01T14:54:00Z,28.1930,-82.7890,-0.47,1111122 
COMPS,ioos:station:USF.COMPS:ANC:1,2009-02-01T15:00:00Z,28.1930,-82.7890,-0.457,1111122 
COMPS,ioos:station:USF.COMPS:ANC:1,2009-02-01T15:06:00Z,28.1930,-82.7890,-0.439,1111122 
COMPS,ioos:station:USF.COMPS:ANC:1,2009-02-01T15:12:00Z,28.1930,-82.7890,-0.421,1111122 
COMPS,ioos:station:USF.COMPS:ANC:1,2009-02-01T15:18:00Z,28.1930,-82.7890,-0.411,1111122 
COMPS,ioos:station:USF.COMPS:ANC:1,2009-02-01T15:24:00Z,28.1930,-82.7890,-0.404,1111122 
COMPS,ioos:station:USF.COMPS:ANC:1,2009-02-01T15:30:00Z,28.1930,-82.7890,-0.393,1111122 
COMPS,ioos:station:USF.COMPS:ANC:1,2009-02-01T15:36:00Z,28.1930,-82.7890,-0.379,1111122 
COMPS,ioos:station:USF.COMPS:ANC:1,2009-02-01T15:42:00Z,28.1930,-82.7890,-0.368,1111122 
COMPS,ioos:station:USF.COMPS:ANC:1,2009-02-01T15:48:00Z,28.1930,-82.7890,-0.36,1111122 
COMPS,ioos:station:USF.COMPS:ANC:1,2009-02-01T15:54:00Z,28.1930,-82.7890,-0.35,1111122 
COMPS,ioos:station:USF.COMPS:ANC:1,2009-02-01T17:00:00Z,28.1930,-82.7890,-0.183,1111122 
COMPS,ioos:station:USF.COMPS:ANC:1,2009-02-01T17:06:00Z,28.1930,-82.7890,-0.165,1111122 
COMPS,ioos:station:USF.COMPS:ANC:1,2009-02-01T17:12:00Z,28.1930,-82.7890,-0.15,1111122 
COMPS,ioos:station:USF.COMPS:ANC:1,2009-02-01T17:18:00Z,28.1930,-82.7890,-0.136,1111122 
COMPS,ioos:station:USF.COMPS:ANC:1,2009-02-01T17:24:00Z,28.1930,-82.7890,-0.118,1111122 
COMPS,ioos:station:USF.COMPS:ANC:1,2009-02-01T17:30:00Z,28.1930,-82.7890,-0.104,1111122 
COMPS,ioos:station:USF.COMPS:ANC:1,2009-02-01T17:36:00Z,28.1930,-82.7890,-0.088,1111122 
COMPS,ioos:station:USF.COMPS:ANC:1,2009-02-01T17:42:00Z,28.1930,-82.7890,-0.073,1111122 
COMPS,ioos:station:USF.COMPS:ANC:1,2009-02-01T17:48:00Z,28.1930,-82.7890,-0.055,1111122 
COMPS,ioos:station:USF.COMPS:ANC:1,2009-02-01T17:54:00Z,28.1930,-82.7890,-0.039,1111122 
COMPS,ioos:station:USF.COMPS:ANC:1,2009-02-01T18:00:00Z,28.1930,-82.7890,-0.025,1111122 
COMPS,ioos:station:USF.COMPS:ANC:1,2009-02-01T18:06:00Z,28.1930,-82.7890,-0.014,1111122 
COMPS,ioos:station:USF.COMPS:ANC:1,2009-02-01T18:12:00Z,28.1930,-82.7890,0.0,1114422 
COMPS,ioos:station:USF.COMPS:ANC:1,2009-02-01T18:18:00Z,28.1930,-82.7890,0.014,1111122 
COMPS,ioos:station:USF.COMPS:ANC:1,2009-02-01T18:24:00Z,28.1930,-82.7890,0.031,1111122 
COMPS,ioos:station:USF.COMPS:ANC:1,2009-02-01T18:30:00Z,28.1930,-82.7890,0.044,1111122 
COMPS,ioos:station:USF.COMPS:ANC:1,2009-02-01T18:36:00Z,28.1930,-82.7890,0.047,1111122 
COMPS,ioos:station:USF.COMPS:ANC:1,2009-02-01T18:42:00Z,28.1930,-82.7890,0.054,1111122 
COMPS,ioos:station:USF.COMPS:ANC:1,2009-02-01T18:48:00Z,28.1930,-82.7890,0.072,1111122 
COMPS,ioos:station:USF.COMPS:ANC:1,2009-02-01T18:54:00Z,28.1930,-82.7890,0.089,1111122 
COMPS,ioos:station:USF.COMPS:ANC:1,2009-02-01T19:00:00Z,28.1930,-82.7890,0.099,1111122 
COMPS,ioos:station:USF.COMPS:ANC:1,2009-02-01T19:06:00Z,28.1930,-82.7890,0.11,1111122 
COMPS,ioos:station:USF.COMPS:ANC:1,2009-02-01T19:12:00Z,28.1930,-82.7890,0.121,1111122 
COMPS,ioos:station:USF.COMPS:ANC:1,2009-02-01T19:18:00Z,28.1930,-82.7890,0.129,1111122 
COMPS,ioos:station:USF.COMPS:ANC:1,2009-02-01T19:24:00Z,28.1930,-82.7890,0.134,1111122 
COMPS,ioos:station:USF.COMPS:ANC:1,2009-02-01T19:30:00Z,28.1930,-82.7890,0.134,1111122 
COMPS,ioos:station:USF.COMPS:ANC:1,2009-02-01T19:36:00Z,28.1930,-82.7890,0.138,1111122 
COMPS,ioos:station:USF.COMPS:ANC:1,2009-02-01T19:42:00Z,28.1930,-82.7890,0.149,1111122 
COMPS,ioos:station:USF.COMPS:ANC:1,2009-02-01T19:48:00Z,28.1930,-82.7890,0.151,1111122 
COMPS,ioos:station:USF.COMPS:ANC:1,2009-02-01T19:54:00Z,28.1930,-82.7890,0.154,1111122 
COMPS,ioos:station:USF.COMPS:ANC:1,2009-02-01T20:00:00Z,28.1930,-82.7890,0.166,1111122 
COMPS,ioos:station:USF.COMPS:ANC:1,2009-02-01T20:06:00Z,28.1930,-82.7890,0.17,1111122 
COMPS,ioos:station:USF.COMPS:ANC:1,2009-02-01T20:12:00Z,28.1930,-82.7890,0.173,1111122 
COMPS,ioos:station:USF.COMPS:ANC:1,2009-02-01T20:18:00Z,28.1930,-82.7890,0.175,1111122 
COMPS,ioos:station:USF.COMPS:ANC:1,2009-02-01T20:24:00Z,28.1930,-82.7890,0.169,1111122 
COMPS,ioos:station:USF.COMPS:ANC:1,2009-02-01T20:30:00Z,28.1930,-82.7890,0.171,1111122 
COMPS,ioos:station:USF.COMPS:ANC:1,2009-02-01T20:36:00Z,28.1930,-82.7890,0.177,1111122 
COMPS,ioos:station:USF.COMPS:ANC:1,2009-02-01T20:42:00Z,28.1930,-82.7890,0.171,1111122 
COMPS,ioos:station:USF.COMPS:ANC:1,2009-02-01T20:48:00Z,28.1930,-82.7890,0.161,1111122 
COMPS,ioos:station:USF.COMPS:ANC:1,2009-02-01T20:54:00Z,28.1930,-82.7890,0.163,1111122 
COMPS,ioos:station:USF.COMPS:ANC:1,2009-02-01T21:00:00Z,28.1930,-82.7890,0.162,1111122 
COMPS,ioos:station:USF.COMPS:ANC:1,2009-02-01T21:06:00Z,28.1930,-82.7890,0.159,1111122 
COMPS,ioos:station:USF.COMPS:ANC:1,2009-02-01T21:12:00Z,28.1930,-82.7890,0.15,1111122 
COMPS,ioos:station:USF.COMPS:ANC:1,2009-02-01T21:18:00Z,28.1930,-82.7890,0.145,1111122 
COMPS,ioos:station:USF.COMPS:ANC:1,2009-02-01T21:24:00Z,28.1930,-82.7890,0.143,1111122 
COMPS,ioos:station:USF.COMPS:ANC:1,2009-02-01T21:30:00Z,28.1930,-82.7890,0.137,1111122 
COMPS,ioos:station:USF.COMPS:ANC:1,2009-02-01T21:36:00Z,28.1930,-82.7890,0.131,1111122 
COMPS,ioos:station:USF.COMPS:ANC:1,2009-02-01T21:42:00Z,28.1930,-82.7890,0.133,1111122 
COMPS,ioos:station:USF.COMPS:ANC:1,2009-02-01T21:48:00Z,28.1930,-82.7890,0.131,1111122 
COMPS,ioos:station:USF.COMPS:ANC:1,2009-02-01T21:54:00Z,28.1930,-82.7890,0.12,1111122 
COMPS,ioos:station:USF.COMPS:ANC:1,2009-02-01T22:00:00Z,28.1930,-82.7890,0.114,1111122 
COMPS,ioos:station:USF.COMPS:ANC:1,2009-02-01T22:06:00Z,28.1930,-82.7890,0.109,1111122 
COMPS,ioos:station:USF.COMPS:ANC:1,2009-02-01T22:12:00Z,28.1930,-82.7890,0.096,1111122 
COMPS,ioos:station:USF.COMPS:ANC:1,2009-02-01T22:18:00Z,28.1930,-82.7890,0.079,1111122 
COMPS,ioos:station:USF.COMPS:ANC:1,2009-02-01T22:24:00Z,28.1930,-82.7890,0.069,1111122 
COMPS,ioos:station:USF.COMPS:ANC:1,2009-02-01T22:30:00Z,28.1930,-82.7890,0.056,1111122 
COMPS,ioos:station:USF.COMPS:ANC:1,2009-02-01T22:36:00Z,28.1930,-82.7890,0.039,1111122 
COMPS,ioos:station:USF.COMPS:ANC:1,2009-02-01T22:42:00Z,28.1930,-82.7890,0.023,1111122 
COMPS,ioos:station:USF.COMPS:ANC:1,2009-02-01T22:48:00Z,28.1930,-82.7890,0.012,1111122 
COMPS,ioos:station:USF.COMPS:ANC:1,2009-02-01T22:54:00Z,28.1930,-82.7890,-0.002,1111122 
COMPS,ioos:station:USF.COMPS:ANC:1,2009-02-01T23:00:00Z,28.1930,-82.7890,-0.02,1111122 
COMPS,ioos:station:USF.COMPS:ANC:1,2009-02-01T23:06:00Z,28.1930,-82.7890,-0.036,1111122 
COMPS,ioos:station:USF.COMPS:ANC:1,2009-02-01T23:12:00Z,28.1930,-82.7890,-0.051,1111122 
COMPS,ioos:station:USF.COMPS:ANC:1,2009-02-01T23:18:00Z,28.1930,-82.7890,-0.068,1111122 
COMPS,ioos:station:USF.COMPS:ANC:1,2009-02-01T23:24:00Z,28.1930,-82.7890,-0.089,1111122 
COMPS,ioos:station:USF.COMPS:ANC:1,2009-02-01T23:30:00Z,28.1930,-82.7890,-0.109,1111122 
COMPS,ioos:station:USF.COMPS:ANC:1,2009-02-01T23:36:00Z,28.1930,-82.7890,-0.127,1111122 
COMPS,ioos:station:USF.COMPS:ANC:1,2009-02-01T23:42:00Z,28.1930,-82.7890,-0.146,1111122 
COMPS,ioos:station:USF.COMPS:ANC:1,2009-02-01T23:48:00Z,28.1930,-82.7890,-0.167,1111122 
COMPS,ioos:station:USF.COMPS:ANC:1,2009-02-01T23:54:00Z,28.1930,-82.7890,-0.188,1111122 
COMPS,ioos:station:USF.COMPS:ANC:1,2009-02-02T00:00:00Z,28.1930,-82.7890,-0.206,1111122 
COMPS,ioos:station:USF.COMPS:ANC:1,2009-02-02T00:06:00Z,28.1930,-82.7890,-0.228,1111122 
COMPS,ioos:station:USF.COMPS:ANC:1,2009-02-02T00:12:00Z,28.1930,-82.7890,-0.249,1111122 
COMPS,ioos:station:USF.COMPS:ANC:1,2009-02-02T00:18:00Z,28.1930,-82.7890,-0.263,1111122 
COMPS,ioos:station:USF.COMPS:ANC:1,2009-02-02T00:24:00Z,28.1930,-82.7890,-0.281,1111122 
COMPS,ioos:station:USF.COMPS:ANC:1,2009-02-02T00:30:00Z,28.1930,-82.7890,-0.305,1111122 
COMPS,ioos:station:USF.COMPS:ANC:1,2009-02-02T00:36:00Z,28.1930,-82.7890,-0.326,1111122 
COMPS,ioos:station:USF.COMPS:ANC:1,2009-02-02T00:42:00Z,28.1930,-82.7890,-0.341,1111122 
COMPS,ioos:station:USF.COMPS:ANC:1,2009-02-02T00:48:00Z,28.1930,-82.7890,-0.359,1111122 
COMPS,ioos:station:USF.COMPS:ANC:1,2009-02-02T00:54:00Z,28.1930,-82.7890,-0.382,1111122 
COMPS,ioos:station:USF.COMPS:ANC:1,2009-02-02T01:00:00Z,28.1930,-82.7890,-0.406,1111122 
COMPS,ioos:station:USF.COMPS:ANC:1,2009-02-02T01:06:00Z,28.1930,-82.7890,-0.425,1111122 
COMPS,ioos:station:USF.COMPS:ANC:1,2009-02-02T01:12:00Z,28.1930,-82.7890,-0.444,1111122 
COMPS,ioos:station:USF.COMPS:ANC:1,2009-02-02T01:18:00Z,28.1930,-82.7890,-0.463,1111122 
COMPS,ioos:station:USF.COMPS:ANC:1,2009-02-02T01:24:00Z,28.1930,-82.7890,-0.48,1111122 
COMPS,ioos:station:USF.COMPS:ANC:1,2009-02-02T01:30:00Z,28.1930,-82.7890,-0.496,1111122 
COMPS,ioos:station:USF.COMPS:ANC:1,2009-02-02T01:36:00Z,28.1930,-82.7890,-0.513,1111122 
COMPS,ioos:station:USF.COMPS:ANC:1,2009-02-02T01:42:00Z,28.1930,-82.7890,-0.529,1111122 
COMPS,ioos:station:USF.COMPS:ANC:1,2009-02-02T01:48:00Z,28.1930,-82.7890,-0.541,1111122 
COMPS,ioos:station:USF.COMPS:ANC:1,2009-02-02T01:54:00Z,28.1930,-82.7890,-0.554,1111122 
COMPS,ioos:station:USF.COMPS:ANC:1,2009-02-02T02:00:00Z,28.1930,-82.7890,-0.571,1111122 
COMPS,ioos:station:USF.COMPS:ANC:1,2009-02-02T02:06:00Z,28.1930,-82.7890,-0.581,1111122 
COMPS,ioos:station:USF.COMPS:ANC:1,2009-02-02T02:12:00Z,28.1930,-82.7890,-0.585,1111122 
COMPS,ioos:station:USF.COMPS:ANC:1,2009-02-02T02:18:00Z,28.1930,-82.7890,-0.591,1111122 
COMPS,ioos:station:USF.COMPS:ANC:1,2009-02-02T02:24:00Z,28.1930,-82.7890,-0.601,1111122 
COMPS,ioos:station:USF.COMPS:ANC:1,2009-02-02T02:30:00Z,28.1930,-82.7890,-0.609,1111122 
COMPS,ioos:station:USF.COMPS:ANC:1,2009-02-02T02:36:00Z,28.1930,-82.7890,-0.615,1111122 
COMPS,ioos:station:USF.COMPS:ANC:1,2009-02-02T02:42:00Z,28.1930,-82.7890,-0.616,1111122 
COMPS,ioos:station:USF.COMPS:ANC:1,2009-02-02T02:48:00Z,28.1930,-82.7890,-0.616,1111122 
COMPS,ioos:station:USF.COMPS:ANC:1,2009-02-02T02:54:00Z,28.1930,-82.7890,-0.618,1111122 
COMPS,ioos:station:USF.COMPS:ANC:1,2009-02-02T03:00:00Z,28.1930,-82.7890,-0.621,1111122 
COMPS,ioos:station:USF.COMPS:ANC:1,2009-02-02T03:06:00Z,28.1930,-82.7890,-0.626,1111122 
COMPS,ioos:station:USF.COMPS:ANC:1,2009-02-02T03:12:00Z,28.1930,-82.7890,-0.633,1111122 
COMPS,ioos:station:USF.COMPS:ANC:1,2009-02-02T03:18:00Z,28.1930,-82.7890,-0.637,1111122 
COMPS,ioos:station:USF.COMPS:ANC:1,2009-02-02T03:24:00Z,28.1930,-82.7890,-0.635,1111122 
COMPS,ioos:station:USF.COMPS:ANC:1,2009-02-02T03:30:00Z,28.1930,-82.7890,-0.631,1111122 
COMPS,ioos:station:USF.COMPS:ANC:1,2009-02-02T03:36:00Z,28.1930,-82.7890,-0.628,1111122 
COMPS,ioos:station:USF.COMPS:ANC:1,2009-02-02T03:42:00Z,28.1930,-82.7890,-0.623,1111122 
COMPS,ioos:station:USF.COMPS:ANC:1,2009-02-02T03:48:00Z,28.1930,-82.7890,-0.618,1111122 
COMPS,ioos:station:USF.COMPS:ANC:1,2009-02-02T03:54:00Z,28.1930,-82.7890,-0.622,1111122 
COMPS,ioos:station:USF.COMPS:ANC:1,2009-02-02T04:00:00Z,28.1930,-82.7890,-0.628,1111122 
COMPS,ioos:station:USF.COMPS:ANC:1,2009-02-02T04:06:00Z,28.1930,-82.7890,-0.625,1111122 
COMPS,ioos:station:USF.COMPS:ANC:1,2009-02-02T04:12:00Z,28.1930,-82.7890,-0.619,1111122 
COMPS,ioos:station:USF.COMPS:ANC:1,2009-02-02T04:18:00Z,28.1930,-82.7890,-0.613,1111122 
COMPS,ioos:station:USF.COMPS:ANC:1,2009-02-02T04:24:00Z,28.1930,-82.7890,-0.596,1111122 
COMPS,ioos:station:USF.COMPS:ANC:1,2009-02-02T04:30:00Z,28.1930,-82.7890,-0.573,1111122 
COMPS,ioos:station:USF.COMPS:ANC:1,2009-02-02T04:36:00Z,28.1930,-82.7890,-0.559,1111122 
COMPS,ioos:station:USF.COMPS:ANC:1,2009-02-02T04:42:00Z,28.1930,-82.7890,-0.548,1111122 
COMPS,ioos:station:USF.COMPS:ANC:1,2009-02-02T04:48:00Z,28.1930,-82.7890,-0.535,1111122 